LEBALEAL

Guest
Details From LEBA - Cordoba
To LEAL - Alicante
Flight Number -
Tags Generated
Created
Modified
Stats Distance 204 nm / 378 km
Max Altitude 0 ft / 0 m
Waypoints 2
Social Downloads 0
Likes 0
Share VATSIM

Download

Looking for another format? Having issues loading an existing format? Contact us
Advertisement - Login to hide

Notes

Generated

Route

LEBA LEAL

ID Type Via Altitude Latitude Longitude Leg Dist Tot Dist Heading (true) Name
O LEBA APT - 0 ft / 0 m 37.83656˚ -4.85267˚ - 0 nm - Cordoba
O LEAL APT - 0 ft / 0 m 38.28452˚ -0.57500˚ 204 nm 204 nm 81° / 84° -

Altitude Profile

Advertisement - Login to hide

Weather


0- 5 10 15 20 25 30 35+ Temperature / ° C

Clouds and Precipitation
Forecast for 2018-05-24 12:00 UTC. Updated 3 hours ago

Ground ~20,000 ft ~40,000 ft Winds

LEBA

Details ICAO LEBA (ODB)
Name Cordoba
Region Spain
Timezone Europe/Madrid (UTC+2.0)
Stats Elevation 296 ft / 90 m (AMSL)
Location 37.843152° -4.848064°
Runways 1
Magnetic Variation 0.941° W

METAR

LEBA 241400Z 26014KT 220V290 CAVOK 26/14 Q1011

Decode

TAF

Not found

Departure Runways

ID Width Length Bearing (true) Bearing (mag) Surface Threshold Offset Overrun Length
03 197 ft / 60 m 7,224 ft / 2,202 m 28.69° 29.63° Asphalt 0 ft / 0 m 0 ft / 0 m
21 197 ft / 60 m 7,224 ft / 2,202 m 208.70° 209.64° Asphalt 1,939 ft / 591 m 0 ft / 0 m

LEAL

Details ICAO LEAL (ALC)
Name Alicante
Region Spain
Timezone Europe/Madrid (UTC+2.0)
Stats Elevation 141 ft / 43 m (AMSL)
Location 38.282169° -0.558157°
Runways 1
Magnetic Variation 0.232° E

METAR

LEAL 241330Z 07016KT CAVOK 27/12 Q1013 NOSIG

Decode

TAF

TAF TAF LEAL 241100Z 2412/2512 07018KT 9999 FEW030 TX26/2412Z TN18/2506Z TEMPO 2412/2418 07022G35KT BECMG 2421/2424 34005KT

Decode

Destination Runways

ID Width Length Bearing (true) Bearing (mag) Surface Threshold Offset Overrun Length
10 148 ft / 45 m 9,799 ft / 2,987 m 100.07° 99.84° Asphalt 0 ft / 0 m 164 ft / 50 m
28 148 ft / 45 m 9,799 ft / 2,987 m 280.09° 279.86° Asphalt 0 ft / 0 m 197 ft / 60 m

Approach Navaids

Runway Type Ident Frequency Range Bearing (true) Bearing (mag) Slope Elevation
10 Localiser IAT 110.30 MHz 18 nm / 33 km 100.09° 99.86° - 29 ft / 9 m (AMSL)
10 Glidescope IAT 110.30 MHz 10 nm / 19 km 100.09° 99.86° 3.00° 129 ft / 39 m (AMSL)
10 DME IAT 110.30 MHz 18 nm / 33 km - - - 129 ft / 39 m (AMSL)